13:14
Airports
History
Links
Donate
Help keep this website running!
PayPal
Bitcoin
This page is community maintained. The information is intended for PC simulator navigation or reference.
Always use approved charts for navigation.
SJGA
Aerorural Floramazon
Aerorural Floramazon (SJGA)
Aveiro, Pará, Brazil (68150)
4
Lat/Lng:3° 42' 8" S / 56° 3' 14" W
-3.702222 / -56.053889
Elevation:131'ft / 40mMSL
ID / ICAO:SJGA
Runways:1
Longest:11-29
Dirt 596m / 1,954ft
Nearby Weather11:00 GMT 2017-10-17
Nearby weather at SBIH, ITAITUBA located 37.5 nautical miles from SJGA
Altimeter: 29.88
Visibility: 4.3 statute miles
Wind: 0 knots (from 000°)
Temp: 27°c / 81°f
Humidity: 83.7%

METAR: SBIH 171100Z 00000KT 7000 NSC 27/24 Q1012

(Powered by phpweather)
Runway 11 / 29
Dimensions:595.5 x 20.1m 1954' x 66'ft
Surface:Dirt
Runway 11 [A]Runway 29 [B]
Heading:092°TH 272°TH
Lat:
Lng:
3° 42' 7.5"S
56° 3' 23.73"W
3° 42' 8.5"S
56° 3' 4.27"W
User Notes and Comments
3° 42' 8" S / 56° 3' 14" W
Distance To
Airport ID:
Nearby Airports
(C) Rudy Kappel 8.7 NM
SMTB SW 229°
4 Agropastoril Sol Nascente 22.5 NM
SDUA NW 306°
(C) ITAITUBA 37.5 NM
SBIH ( WX ) S 174°
4 Santa Teresa 40.8 NM
SNTJ S 183°
(U) FAZENDA ROSA DE MAIO 42.5 NM
SNRB S 184°
(U) CAIMA 43.1 NM
SIRJ SSW 195°
(C) Vincent Faiks 48.2 NM
SMPA ENE 59°
VFR Chart
Flight Planning at SkyVector.com